Location: STAR School
(35.3054°N, 111.2976°W)
Time: 14:46:42
(UTC-07:00)

N. Korean satellite - Visible Passes

Search period start: 18 November 2019 00:00
Search period end: 28 November 2019 00:00
Orbit: 456 x 506 km, 97.2° (Epoch: 18 November)

Date Brightness Start Highest point End Pass type
(mag) Time Alt. Az. Time Alt. Az. Time Alt. Az.
18 Nov 7.9 05:55:09 10° NNE 05:58:41 43° E 06:02:09 10° S visible
18 Nov 8.3 18:00:32 10° SSW 18:03:54 37° W 18:07:19 10° NNW visible
19 Nov 9.5 05:30:27 10° NE 05:33:12 20° E 05:35:55 10° SE visible
20 Nov 10.4 18:46:12 10° W 18:46:44 10° W 18:47:15 10° W visible
21 Nov 6.7 06:12:14 10° NNE 06:15:55 80° ESE 06:19:30 10° S visible
21 Nov 9.4 18:18:16 10° SSW 18:21:10 22° W 18:24:05 10° NW visible
22 Nov 8.5 05:47:08 10° NNE 05:50:29 33° E 05:53:46 10° SSE visible
22 Nov 7.7 17:52:09 10° S 17:55:41 49° W 17:59:17 10° NNW visible
23 Nov 9.9 05:22:43 10° NE 05:24:58 16° E 05:27:11 10° SE visible
24 Nov 6.6 06:29:28 10° N 06:33:03 56° WNW 06:36:34 10° SSW visible
24 Nov 10.0 18:36:36 10° WSW 18:38:27 13° W 18:40:18 10° WNW visible
25 Nov 7.2 06:04:05 10° NNE 06:07:41 60° E 06:11:13 10° S visible
25 Nov 8.9 18:09:43 10° SSW 18:12:55 28° W 18:16:09 10° NW visible
26 Nov 9.0 05:39:09 10° NE 05:42:13 26° E 05:45:14 10° SSE visible
26 Nov 7.1 17:43:50 10° S 17:47:27 66° W 17:51:09 10° NNW visible
27 Nov 10.1 05:15:13 10° ENE 05:16:39 12° E 05:18:05 10° ESE visible
